2024-174C

Last updated on Tue Oct 08 2024 00:02:04 GMT+0000 (Coordinated Universal Time)

1 61240U 24174C 24281.56614812 .00018247 00000+0 94641-3 0 9999 2 61240 97.4509 286.6251 0013635 231.9697 128.0306 15.16123688 1871
UTC large
Height (km)
Speed (km/s)
/
Latitude / Longitude
Inclination (degrees)
Orbital Period (minutes)
Azimuth
Elevation
Range (km)
Doppler Factor

Next 0 passes for location: London (51.5072 / 0.1276)

Sorry there are no passes over London.